#timestamp,LO_Frequency,Hit,StdDev 
1534064415.5,286046997.1,N
1534064435.3,286046995.4,Y
1534064455.1,286046997.0,P
1534064475.9,286046996.6,P
1534064495.7,286046997.7,P
1534064515.6,286046995.1,Y
1534064535.4,286046997.8,P
1534064555.2,286046998.7,P
1534064575.1,286046997.2,P
1534064576.0,286046997.2,Y
1534064595.8,286046998.5,P
1534064615.7,286047002.4,P
1534064635.5,286047002.0,N
1534064655.3,286046999.7,N
1534064675.2,286047001.9,N
1534064695.0,286047002.6,N
1534064695.9,286047002.6,N
1534064715.7,286047001.6,N
1534064735.6,286047001.3,N
1534064755.4,286047000.2,N
1534064775.3,286047000.0,N
1534064795.1,286047001.9,N
1534064796.0,286047001.9,N
1534064815.8,286047001.9,N
1534064835.7,286047001.8,N
1534064855.5,286047002.0,N
1534064875.4,286047002.0,N
1534064895.2,286047002.0,N
1534064915.0,286047002.5,N
1534064915.9,286047002.5,N
1534064935.8,286047002.4,N
1534064955.6,286047002.3,N
1534064975.4,286047000.0,N
1534064995.3,286047000.2,N
1534065015.1,286047001.1,N
1534065035.9,286047001.0,N
1534065055.7,286047000.9,N
1534065075.5,286046999.4,N
1534065095.4,286046997.1,N
1534065115.2,286046995.4,Y
1534065135.1,286046992.5,P
1534065136.0,286046992.5,N
1534065155.8,286046992.3,N
1534065175.6,286046992.6,N
1534065195.5,286046990.3,N
1534065215.3,286046990.8,N
1534065235.2,286046991.3,N
1534065255.9,286046988.5,Y
1534065275.7,286046998.4,P
1534065295.6,286047001.0,N
1534065315.4,286047000.5,N
1534065335.2,286046998.9,N
1534065355.1,286046996.5,N
1534065356.0,286046996.5,N
1534065375.8,286046999.2,N
1534065395.7,286046998.7,N
1534065415.5,286047000.7,N
1534065435.3,286047000.0,N
1534065455.2,286047000.3,N
1534065475.0,286047002.6,N
1534065475.9,286047002.6,N
1534065495.8,286047000.5,N
1534065515.6,286047002.5,N
1534065535.4,286047000.3,N
1534065555.3,286047002.3,N
1534065575.1,286047002.5,N
1534065595.8,286047004.3,N
1534065615.7,286047004.1,N
1534065635.5,286047003.8,N
1534065655.4,286047004.2,N
1534065675.2,286047001.8,N
1534065695.0,286047001.4,N
1534065695.9,286047001.4,N
1534065715.8,286047001.9,N
1534065735.6,286047000.1,N
1534065755.5,286047002.8,N
1534065775.3,286047000.1,N
1534065795.1,286046998.5,N
1534065815.9,286046999.6,N
1534065835.7,286046998.1,N
1534065855.5,286046997.4,N
1534065875.4,286046995.4,N
1534065895.2,286046997.1,N
1534065915.1,286046996.9,N
1534065916.0,286046996.9,N
1534065935.8,286046998.4,N
1534065955.6,286047000.5,N
1534065975.5,286046999.1,N
1534065995.3,286046997.2,N
1534066015.1,286046999.6,N
1534066035.9,286046996.7,N
1534066055.7,286046993.3,N
1534066075.6,286046992.5,N
1534066095.4,286046991.9,N
1534066115.2,286046992.6,N
1534066135.1,286046992.3,N
1534066136.0,286046992.3,N
1534066155.8,286046994.3,N
1534066175.7,286046993.7,N
1534066195.5,286046996.0,N
1534066215.3,286046995.3,N
1534066235.2,286046996.5,N
1534066255.0,286046995.1,N
1534066285.9,286046993.3,E
1534066295.9,286046999.4,N
1534066315.7,286046998.5,P
1534066335.5,286047001.2,N
1534066355.4,286046998.2,N
1534066375.2,286047000.7,N
1534066395.0,286046999.4,N
1534066396.0,286046999.4,N
1534066415.8,286046999.4,N
1534066435.6,286046996.6,Y
1534066455.5,286046997.7,P
1534066475.3,286046995.3,P
1534066495.1,286046997.4,N
1534066515.9,286046994.1,Y
1534066535.7,286046995.4,P
1534066555.6,286046999.3,N
1534066575.4,286047000.5,N
1534066595.2,286047005.8,N
1534066615.1,286047000.4,N
1534066616.0,286047000.4,N
1534066635.8,286047001.9,N
1534066655.7,286047004.4,N
1534066675.5,286047003.7,N
1534066695.3,286047001.4,N
1534066715.2,286047001.8,N
1534066735.0,286047003.3,N
1534066735.9,286047003.3,N
1534066755.7,286047005.7,N
1534066775.6,286047004.3,N
1534066795.4,286047001.8,N
1534066815.3,286047002.5,N
1534066835.1,286047004.4,N
1534066836.0,286047004.4,N
1534066855.8,286046999.7,N
1534066875.7,286047002.6,N
1534066895.5,286047000.5,N
1534066915.4,286046998.3,N
1534066935.2,286046997.7,N
1534066955.0,286046995.8,N
1534066955.9,286046995.8,N
1534066975.8,286046995.0,N
1534066995.6,286046995.9,N
1534067015.4,286046993.9,N
1534067035.3,286046991.8,N
1534067055.1,286046992.3,N
1534067075.9,286046993.1,N
1534067095.7,286046986.9,Y
1534067115.5,286046989.9,P
1534067135.4,286046987.5,N
1534067155.2,286046987.0,N
1534067175.1,286046987.3,N
1534067176.0,286046987.3,N
1534067195.8,286046987.8,N
1534067215.6,286046987.4,N
1534067235.5,286046987.7,N
1534067255.3,286046986.6,Y
1534067275.2,286046997.4,P
1534067295.9,286046997.6,N
1534067315.7,286046993.4,N
1534067335.6,286046986.3,Y
1534067355.4,286047002.1,P
1534067375.2,286047002.5,N
1534067395.1,286047001.3,N
1534067396.0,286047001.3,N
1534067415.8,286047002.5,N
1534067435.7,286047000.2,N
1534067455.5,286046998.5,N
1534067475.3,286047001.6,N
1534067495.2,286047000.1,N
1534067515.0,286047000.2,N
1534067515.9,286047000.2,N
1534067535.8,286047001.0,N
1534067555.6,286047002.2,N
1534067575.4,286046998.3,N
1534067595.3,286046999.8,N
1534067615.1,286047000.5,N
1534067635.9,286047002.3,N
1534067655.7,286047000.8,N
1534067675.5,286047000.6,N
1534067695.4,286046998.3,N
1534067715.2,286046997.1,N
1534067735.0,286046995.0,N
1534067735.9,286046995.0,N
1534067755.8,286046996.7,N
1534067775.6,286046997.6,N
1534067795.5,286046996.8,N
1534067815.3,286046994.9,N
1534067835.1,286046997.4,N
1534067855.9,286046996.3,N
1534067875.7,286046993.3,N
1534067895.6,286046996.5,N
1534067915.4,286046996.1,N
1534067935.2,286046996.0,N
1534067955.1,286046995.1,N
1534067956.0,286046995.1,N
1534067975.8,286046995.1,N
1534067995.6,286046996.8,N
